Artesia, NM

7:58 PM MDT on April 24, 2018 (GMT -0600)
Artesia Municipal

Weather History for KATS - January, 2013

Change the Weather History Date:

Tuesday, January 29, 2013

  Actual Average Record
Temperature  
Mean Temperature 41 °F -  
Max Temperature 50 °F 60 °F 80 °F (1986)
Min Temperature 30 °F 24 °F 2 °F (1949)
Degree Days  
Heating Degree Days 24    
Moisture  
Dew Point 18 °F    
Average Humidity 39    
Maximum Humidity 75    
Minimum Humidity 13    
Precipitation  
Precipitation 0.00 in - - ()
Sea Level Pressure  
Sea Level Pressure 29.78 in    
Wind  
Wind Speed 16 mph (West)    
Max Wind Speed 34 mph    
Max Gust Speed 45 mph    
Visibility 10 miles    
Events      
Averages and records for this station are not official NWS values.
T = Trace of Precipitation, MM = Missing Value Source: NWS Daily Summary

Daily Weather History Graph

Daily Weather History Graph

Search for Another Location

Airport or City:

Astronomy

Jan. 29, 2013 Rise Set
Actual Time 6:54 AM MST 5:27 PM MST
Civil Twilight 6:28 AM MST 5:53 PM MST
Nautical Twilight 5:58 AM MST 6:23 PM MST
Astronomical Twilight 5:29 AM MST 6:52 PM MST
Moon 8:13 PM MST (1/29) 8:04 AM MST (1/29)
Length of Visible Light 11h 25m
Length of Day
10h 33m
Waning Gibbous, 93% of the Moon is Illuminated
Jan 29
Waning Gibbous
Feb 3
Last Quarter
Feb 10
New
Feb 17
First Quarter
Feb 25
Full

Hourly Weather History & Observations

Time (MST) Temp. Windchill Dew Point Humidity Pressure Visibility Wind Dir Wind Speed Gust Speed Precip Events Conditions
12:15 AM 50.0 °F - 28.4 °F 43% 29.78 in 10.0 mi WSW 12.7 mph - N/A   Clear
12:35 AM 50.0 °F - 28.4 °F 43% 29.77 in 10.0 mi SW 11.5 mph - N/A   Clear
12:55 AM 48.2 °F - 28.4 °F 46% 29.77 in 10.0 mi SW 10.4 mph - N/A   Clear
1:15 AM 48.2 °F - 30.2 °F 50% 29.76 in 10.0 mi SW 10.4 mph - N/A   Clear
1:35 AM 48.2 °F - 30.2 °F 50% 29.76 in 10.0 mi SW 11.5 mph - N/A   Clear
1:55 AM 48.2 °F - 30.2 °F 50% 29.76 in 10.0 mi SW 11.5 mph - N/A   Clear
2:15 AM 46.4 °F 42.4 °F 30.2 °F 53% 29.76 in 10.0 mi South 8.1 mph - N/A   Clear
2:35 AM 46.4 °F 41.1 °F 30.2 °F 53% 29.76 in 10.0 mi South 11.5 mph - N/A   Clear
2:55 AM 46.4 °F 41.5 °F 32.0 °F 57% 29.76 in 10.0 mi South 10.4 mph - N/A   Clear
3:15 AM 46.4 °F 41.5 °F 30.2 °F 53% 29.77 in 10.0 mi South 10.4 mph - N/A   Clear
3:35 AM 44.6 °F 39.7 °F 30.2 °F 57% 29.76 in 10.0 mi South 9.2 mph - N/A   Clear
3:55 AM 42.8 °F 38.0 °F 28.4 °F 57% 29.75 in 10.0 mi SSW 8.1 mph - N/A   Clear
4:15 AM 42.8 °F 39.3 °F 28.4 °F 57% 29.76 in 10.0 mi West 5.8 mph - N/A   Partly Cloudy
4:35 AM 42.8 °F 38.0 °F 28.4 °F 57% 29.77 in 10.0 mi WNW 8.1 mph - N/A   Mostly Cloudy
4:55 AM 41.0 °F 38.0 °F 28.4 °F 61% 29.76 in 10.0 mi NW 4.6 mph - N/A   Scattered Clouds
5:15 AM 41.0 °F 39.0 °F 28.4 °F 61% 29.76 in 10.0 mi West 3.5 mph - N/A   Clear
5:35 AM 41.0 °F 35.8 °F 26.6 °F 57% 29.77 in 10.0 mi West 8.1 mph - N/A   Clear
5:55 AM 41.0 °F 36.4 °F 26.6 °F 57% 29.78 in 10.0 mi SSW 6.9 mph - N/A   Clear
6:15 AM 41.0 °F 34.3 °F 26.6 °F 57% 29.78 in 10.0 mi SSW 11.5 mph - N/A   Partly Cloudy
6:35 AM 41.0 °F 33.1 °F 26.6 °F 57% 29.79 in 10.0 mi SW 15.0 mph - N/A   Clear
6:55 AM 44.6 °F 35.7 °F 23.0 °F 43% 29.79 in 10.0 mi WSW 24.2 mph 28.8 mph N/A   Partly Cloudy
7:15 AM 42.8 °F 33.5 °F 24.8 °F 49% 29.77 in 10.0 mi WSW 23.0 mph 27.6 mph N/A   Clear
7:35 AM 41.0 °F 32.5 °F 26.6 °F 57% 29.76 in 10.0 mi SW 17.3 mph - N/A   Clear
7:55 AM 41.0 °F 31.6 °F 26.6 °F 57% 29.76 in 10.0 mi SW 20.7 mph 25.3 mph N/A   Clear
8:15 AM 41.0 °F 33.1 °F 26.6 °F 57% 29.75 in 10.0 mi SW 15.0 mph - N/A   Clear
8:35 AM 41.0 °F 31.6 °F 24.8 °F 53% 29.74 in 10.0 mi SW 20.7 mph 26.5 mph N/A   Clear
8:55 AM 44.6 °F 35.1 °F 24.8 °F 46% 29.75 in 10.0 mi WSW 27.6 mph 34.5 mph N/A   Clear
9:15 AM 44.6 °F 35.1 °F 24.8 °F 46% 29.75 in 10.0 mi WSW 27.6 mph 38.0 mph N/A   Clear
9:35 AM 44.6 °F 34.6 °F 23.0 °F 43% 29.73 in 10.0 mi WSW 31.1 mph 38.0 mph N/A   Clear
9:55 AM 44.6 °F 35.5 °F 19.4 °F 37% 29.75 in 10.0 mi WSW 25.3 mph 32.2 mph N/A   Clear
10:15 AM 46.4 °F 37.4 °F 19.4 °F 34% 29.74 in 10.0 mi WSW 28.8 mph 34.5 mph N/A   Clear
10:35 AM 48.2 °F - 17.6 °F 30% 29.74 in 10.0 mi WSW 25.3 mph 29.9 mph N/A   Clear
10:55 AM 48.2 °F - 19.4 °F 32% 29.73 in 10.0 mi SW 23.0 mph 31.1 mph N/A   Clear
11:15 AM 48.2 °F - 10.4 °F 22% 29.72 in 10.0 mi West 24.2 mph 36.8 mph N/A   Clear
11:35 AM 50.0 °F - 8.6 °F 19% 29.71 in 10.0 mi West 29.9 mph 35.7 mph N/A   Clear
11:55 AM 48.2 °F - 12.2 °F 24% 29.72 in 10.0 mi West 28.8 mph 38.0 mph N/A   Clear
12:15 PM 48.2 °F - 14.0 °F 25% 29.71 in 10.0 mi West 28.8 mph 41.4 mph N/A   Clear
12:35 PM 50.0 °F - 15.8 °F 26% 29.70 in 10.0 mi WSW 26.5 mph 33.4 mph N/A   Partly Cloudy
12:55 PM 48.2 °F - 15.8 °F 27% 29.70 in 10.0 mi West 25.3 mph 34.5 mph N/A   Partly Cloudy
1:15 PM 48.2 °F - 15.8 °F 27% 29.69 in 10.0 mi WSW 29.9 mph 40.3 mph N/A   Partly Cloudy
1:35 PM 46.4 °F 36.5 °F 15.8 °F 29% 29.70 in 10.0 mi West 34.5 mph 40.3 mph N/A   Clear
1:55 PM 46.4 °F 37.2 °F 14.0 °F 27% 29.70 in 10.0 mi West 29.9 mph 41.4 mph N/A   Clear
2:15 PM 44.6 °F 34.6 °F 15.8 °F 31% 29.71 in 10.0 mi West 31.1 mph 39.1 mph N/A   Partly Cloudy
2:35 PM 46.4 °F 37.4 °F 14.0 °F 27% 29.71 in 10.0 mi West 28.8 mph 35.7 mph N/A   Clear
2:55 PM 46.4 °F 36.7 °F 15.8 °F 29% 29.72 in 10.0 mi West 33.4 mph 41.4 mph N/A   Clear
3:15 PM 44.6 °F 34.1 °F 17.6 °F 34% 29.73 in 10.0 mi West 34.5 mph 41.4 mph N/A   Clear
3:35 PM 42.8 °F 33.1 °F 15.8 °F 34% 29.73 in 10.0 mi West 25.3 mph 32.2 mph N/A   Partly Cloudy
3:55 PM 42.8 °F 34.0 °F 17.6 °F 36% 29.73 in 10.0 mi West 20.7 mph 26.5 mph N/A   Clear
4:15 PM 44.6 °F 35.5 °F 15.8 °F 31% 29.74 in 10.0 mi West 25.3 mph 31.1 mph N/A   Clear
4:35 PM 44.6 °F 35.1 °F 10.4 °F 25% 29.74 in 10.0 mi West 27.6 mph 35.7 mph N/A   Clear
4:55 PM 44.6 °F 35.7 °F 5.0 °F 20% 29.74 in 10.0 mi West 24.2 mph 31.1 mph N/A   Clear
5:15 PM 44.6 °F 34.7 °F -4.0 °F 13% 29.76 in 10.0 mi WNW 29.9 mph 44.9 mph N/A   Clear
5:35 PM 41.0 °F 30.5 °F -4.0 °F 15% 29.77 in 10.0 mi WNW 26.5 mph 36.8 mph N/A   Clear
5:55 PM 41.0 °F 31.4 °F -4.0 °F 15% 29.78 in 10.0 mi WNW 21.9 mph 29.9 mph N/A   Clear
6:15 PM 41.0 °F 30.7 °F -2.2 °F 16% 29.79 in 10.0 mi WNW 25.3 mph 31.1 mph N/A   Clear
6:35 PM 41.0 °F 30.9 °F -0.4 °F 18% 29.79 in 10.0 mi WNW 24.2 mph 35.7 mph N/A   Clear
6:55 PM 39.2 °F 29.3 °F 1.4 °F 21% 29.81 in 10.0 mi WNW 20.7 mph 28.8 mph N/A   Clear
7:15 PM 39.2 °F 29.8 °F 1.4 °F 21% 29.83 in 10.0 mi NW 18.4 mph 27.6 mph N/A   Clear
7:35 PM 39.2 °F 30.5 °F 1.4 °F 21% 29.85 in 10.0 mi WNW 16.1 mph - N/A   Clear
7:55 PM 37.4 °F 28.9 °F 3.2 °F 24% 29.87 in 10.0 mi NW 13.8 mph - N/A   Clear
8:15 PM 37.4 °F 29.8 °F 5.0 °F 26% 29.88 in 10.0 mi NW 11.5 mph - N/A   Clear
8:35 PM 37.4 °F 28.9 °F 5.0 °F 26% 29.89 in 10.0 mi WNW 13.8 mph 19.6 mph N/A   Clear
8:55 PM 37.4 °F 29.3 °F 6.8 °F 28% 29.90 in 10.0 mi WNW 12.7 mph - N/A   Clear
9:15 PM 35.6 °F 27.5 °F 6.8 °F 30% 29.91 in 10.0 mi WNW 11.5 mph - N/A   Clear
9:35 PM 33.8 °F 27.0 °F 6.8 °F 32% 29.91 in 10.0 mi WNW 8.1 mph - N/A   Clear
9:55 PM 32.0 °F 24.8 °F 6.8 °F 35% 29.92 in 10.0 mi WNW 8.1 mph - N/A   Clear
10:15 PM 32.0 °F 26.4 °F 6.8 °F 35% 29.94 in 10.0 mi NW 5.8 mph - N/A   Scattered Clouds
10:35 PM 32.0 °F 22.5 °F 10.4 °F 41% 29.96 in 10.0 mi NNE 12.7 mph 17.3 mph N/A   Mostly Cloudy
10:55 PM 32.0 °F 20.8 °F 19.4 °F 60% 29.97 in 10.0 mi NNE 17.3 mph 20.7 mph N/A   Partly Cloudy
11:15 PM 32.0 °F 21.6 °F 21.2 °F 64% 29.98 in 10.0 mi North 15.0 mph - N/A   Clear
11:35 PM 32.0 °F 22.1 °F 23.0 °F 69% 30.00 in 10.0 mi North 13.8 mph - N/A   Clear
11:55 PM 30.2 °F 21.3 °F 23.0 °F 75% 30.01 in 10.0 mi North 10.4 mph - N/A   Clear